Notices

What's New in latest Release from April 7th, 2021:

- Updated Glossary, including Speed of Maximum Gust, and Total Hourly Precipitation

- Updated national and regional climate services offices contacts and prices information

- Addition of station inventory lists for 1981-2010, 1971-2000, and 1961-1990 Normals.

If you haven't already, please take our survey and provide feedback about our website: https://eccc.sondage-survey.ca/f/LanguageSelection.aspx?s=442ca660-fcf1-47c0-95a9-59707d6fd709

Hourly Data Report for October 27, 2006

TORONTO CITY
ONTARIO

43°40'00.000" N
79°24'00.000" W
112.50 m
6158355
71508
XTO

Download Data

Hourly Data (October 2006)
Hourly Data Report for October 27, 2006
TIME
LST
Temp Definition
°C
Dew Point Definition
°C
Rel Hum Definition
%
Precip. Amount Definition
mm

Wind Dir Definition
10's deg

Wind Spd Definition
km/h
Visibility Definition
km
Stn Press Definition
kPa
Hmdx Definition


Wind Chill Definition


Weather Definition


00:00 4.8 0.1 72   LegendMM LegendMM   100.85     LegendNANA
01:00 4.7 0.1 72   LegendMM LegendMM   100.84     LegendNANA
02:00 3.1 0.0 80   LegendMM LegendMM   100.82     LegendNANA
03:00 3.5 0.3 80   LegendMM LegendMM   100.75     LegendNANA
04:00 3.5 0.3 80   LegendMM LegendMM   100.73     LegendNANA
05:00 3.2 -0.2 78   LegendMM LegendMM   100.69     LegendNANA
06:00 3.2 0.1 80   LegendMM LegendMM   100.66     LegendNANA
07:00 3.3 0.9 84   LegendMM LegendMM   100.65     LegendNANA
08:00 3.9 1.6 85   LegendMM LegendMM   100.67     LegendNANA
09:00 4.8 2.4 84   LegendMM LegendMM   100.53     LegendNANA
10:00 5.9 2.6 79   LegendMM LegendMM   100.45     LegendNANA
11:00 6.3 3.3 81   LegendMM LegendMM   100.35     LegendNANA
12:00 5.9 3.2 83   LegendMM LegendMM   100.22     LegendNANA
13:00 6.3 3.0 79   LegendMM LegendMM   100.08     LegendNANA
14:00 5.9 3.8 86   LegendMM LegendMM   99.98     LegendNANA
15:00 6.2 4.1 86   LegendMM LegendMM   99.84     LegendNANA
16:00 6.0 4.5 90   LegendMM LegendMM   99.74     LegendNANA
17:00 6.0 5.0 93   LegendMM LegendMM   99.67     LegendNANA
18:00 5.9 5.1 95   LegendMM LegendMM   99.59     LegendNANA
19:00 6.0 5.5 97   LegendMM LegendMM   99.48     LegendNANA
20:00 5.6 5.2 97   LegendMM LegendMM   99.25     LegendNANA
21:00 6.1 5.5 96   LegendMM LegendMM   99.04     LegendNANA
22:00 6.1 5.6 97   LegendMM LegendMM   98.88     LegendNANA
23:00 6.0 5.6 97   LegendMM LegendMM   98.69     LegendNANA

Notes on Data Quality.

Legend

  • E = Estimated
  • M = Missing
  • NA = Not Available*
  • [empty] = Indicates an unobserved value
Date modified: